Location: Sobotiste
(48.7170°N, 17.4000°E)
Time: 18:41:32
(UTC+02:00)

CUTE-I - Pass Details

Date: 14 March 2026
Orbit: 804 x 818 km, 98.7° (Epoch: 18 April)

Event Time Altitude Azimuth Distance (km) Brightness Sun altitude
Rises 04:38:42 0° 33° (NNE) 3,328 ? -15.2°
Reaches altitude 10° 04:42:55 10° 65° (ENE) 2,390 ? -14.5°
Maximum altitude 04:44:40 12° 85° (E) 2,278 ? -14.2°
Drops below altitude 10° 04:46:25 10° 105° (ESE) 2,386 ? -13.9°
Sets 04:50:35 0° 137° (SE) 3,311 ? -13.2°
